Location: Austin
(30.3000°N, 97.7500°W)
Time: 23:26:27
(UTC-05:00)

Cosmos 2082 Rocket - Pass Details

Date: 17 March 2026
Orbit: 831 x 854 km, 71.0° (Epoch: 20 April)

Event Time Altitude Azimuth Distance (km) Brightness Sun altitude
Rises 20:31:14 0° 325° (NW) 3,423 6.0 -11.7°
Reaches altitude 10° 20:34:02 10° 313° (NW) 2,483 5.5 -12.3°
Maximum altitude 20:38:42 27° 258° (WSW) 1,590 4.5 -13.3°
Drops below altitude 10° 20:43:21 10° 203° (SSW) 2,464 4.8 -14.3°
Sets 20:46:08 0° 191° (S) 3,392 5.4 -14.9°
